User: anonymous   Login
Location: Wavehorne
(51.0500°N, 0.8333°E)
Time: 19:49:42
(UTC+00:00)
Language:

Cosmos 1151 Rocket - Orbit

View from above orbital plane
View from above orbital plane
View from above satellite
View from above satellite

Ground track
Ground track

The orbit data is extracted from the following two-line orbital elements,

1 11672U 80005B   21270.61656974  .00000160  00000-0  14659-4 0  9992
2 11672  82.5167  43.4926 0017161 161.3451 198.8400 14.88067560234771
Epoch (UTC): 27 September 2021 14:47:51
Eccentricity: 0.0017161
inclination: 82.5167°
perigee height: 592 km
apogee height: 616 km
right ascension of ascending node: 43.4926°
argument of perigee: 161.3451°
revolutions per day: 14.88067560
mean anomaly at epoch: 198.8400°
orbit number at epoch: 23477

The dashed part of the orbit path shows where the satellite is in the earth's shadow,  

DLR